TimeCST,TemperatureF,Dew PointF,Humidity,Sea Level PressureIn,VisibilityMPH,Wind Direction,Wind SpeedMPH,Gust SpeedMPH,PrecipitationIn,Events,Conditions,WindDirDegrees,DateUTC
12:54 AM,43.0,34.0,71,30.08,10.0,SE,5.8,-,N/A,,Overcast,140,2012-11-30 06:54:00
1:54 AM,42.1,34.0,73,30.08,10.0,ESE,4.6,-,N/A,,Overcast,120,2012-11-30 07:54:00
2:54 AM,42.1,33.1,70,30.09,10.0,ESE,3.5,-,N/A,,Overcast,110,2012-11-30 08:54:00
3:54 AM,42.1,33.1,70,30.07,10.0,East,3.5,-,N/A,,Overcast,90,2012-11-30 09:54:00
4:54 AM,39.9,33.1,77,30.07,10.0,East,4.6,-,N/A,,Overcast,80,2012-11-30 10:54:00
5:54 AM,39.0,32.0,76,30.08,10.0,ESE,4.6,-,N/A,,Overcast,110,2012-11-30 11:54:00
6:54 AM,37.9,32.0,79,30.09,10.0,East,5.8,-,N/A,,Overcast,80,2012-11-30 12:54:00
7:54 AM,39.9,33.1,77,30.10,8.0,East,4.6,-,N/A,,Overcast,80,2012-11-30 13:54:00
8:54 AM,41.0,33.1,73,30.11,8.0,ENE,4.6,-,N/A,,Overcast,70,2012-11-30 14:54:00
9:54 AM,44.1,33.1,65,30.12,10.0,NE,6.9,-,N/A,,Partly Cloudy,50,2012-11-30 15:54:00
10:54 AM,46.0,33.1,61,30.11,10.0,ENE,10.4,-,N/A,,Partly Cloudy,60,2012-11-30 16:54:00
11:54 AM,51.1,34.0,52,30.10,10.0,ENE,9.2,-,N/A,,Scattered Clouds,60,2012-11-30 17:54:00
12:54 PM,52.0,35.1,53,30.09,10.0,East,8.1,-,N/A,,Clear,80,2012-11-30 18:54:00
1:54 PM,52.0,36.0,54,30.09,10.0,ENE,6.9,-,N/A,,Clear,60,2012-11-30 19:54:00
2:54 PM,52.0,36.0,54,30.10,10.0,ENE,8.1,-,N/A,,Clear,70,2012-11-30 20:54:00
3:54 PM,48.0,37.9,68,30.15,10.0,NE,10.4,-,N/A,,Scattered Clouds,50,2012-11-30 21:54:00
4:54 PM,45.0,36.0,71,30.17,10.0,ENE,11.5,-,N/A,,Mostly Cloudy,70,2012-11-30 22:54:00
5:54 PM,42.1,36.0,79,30.17,9.0,ENE,10.4,-,N/A,,Overcast,70,2012-11-30 23:54:00
6:54 PM,41.0,35.1,79,30.18,7.0,East,9.2,-,N/A,,Scattered Clouds,80,2012-12-01 00:54:00
7:54 PM,37.9,34.0,86,30.19,6.0,ENE,5.8,-,N/A,,Partly Cloudy,60,2012-12-01 01:54:00
8:54 PM,37.9,35.1,89,30.17,6.0,East,6.9,-,N/A,,Scattered Clouds,80,2012-12-01 02:54:00
9:54 PM,37.0,34.0,89,30.16,5.0,Calm,Calm,-,N/A,,Partly Cloudy,0,2012-12-01 03:54:00
10:54 PM,36.0,33.1,89,30.17,5.0,NE,5.8,-,N/A,,Partly Cloudy,40,2012-12-01 04:54:00
11:54 PM,35.1,33.1,92,30.15,4.0,NE,6.9,-,N/A,,Partly Cloudy,50,2012-12-01 05:54:00